Flag for Mexico Weather past 2 weeks in Guadalajara, Jalisco, Mexico

Now
77 °F

Broken clouds.


Feels Like: 79 °F
Forecast: 61 / 81 °F
Wind: 9 mph from Southeast

Location: Don Miguel / Guadalaj

Current Time: Sep 21, 2014 at 1:42:07 PM

Latest Report: Sep 21, 2014 at 12:50 PM


Visibility: 10 mi

Pressure: 29.90 "Hg

Humidity: 51%

Dew point: 57 °F

Location of GuadalajaraLocation

Historic Weather in Guadalajara — Graph

°F

Guadalajara temperature yesterday

Maximum temperature yesterday: 79 °F (at 4:53 PM)
Minimum temperature yesterday: 54 °F (at 3:52 AM)
Average temperature yesterday: 65 °F

Past Weeks' High & Low Weather Summary

 TemperatureHumidityPressure
High82 °F (Sep 10, 4:54 PM)94% (Sep 7, 12:49 AM)30.25 "Hg (Sep 7, 12:49 AM)
Low54 °F (Sep 20, 3:52 AM)42% (Sep 6, 4:50 PM)29.66 "Hg (Sep 12, 3:51 PM)
Average68 °F73%30.02 "Hg
* Reported Sep 6 11:48 AM — Sep 21 11:52 AM, Guadalajara, Weather by CustomWeather, © 2014

Note: Actual official high and low records may vary slightly from our data, if they occured in-between our weather recording intervals... More about our weather records

Advertising

Guadalajara weather history for previous 24 hours

 ConditionsComfort  
Time TempWeatherWind HumidityBarometerVisibility
11:52 AM
Sep 21
75 °FBroken clouds.No wind54%30.22 "Hg8 mi
10:52 AM72 °FBroken clouds.No wind65%30.21 "Hg8 mi
9:49 AM64 °FBroken clouds.No wind78%29.94 "Hg10 mi
8:50 AM59 °FPartly sunny.No wind88%30.19 "Hg10 mi
7:52 AM55 °FPartly cloudy.No wind88%30.18 "Hg10 mi
5:49 AM55 °FPassing clouds.No wind88%30.13 "Hg8 mi
2:41 AM59 °FClear.5 mph82%30.14 "Hg10 mi
1:42 AM59 °FClear.No wind77%30.15 "Hg10 mi
12:45 AM61 °FClear.No wind77%29.87 "Hg10 mi
9:49 PM
Sep 20
64 °FPassing clouds.No wind64%29.88 "Hg10 mi
7:48 PM73 °FPartly sunny.6 mph61%30.07 "Hg10 mi
5:46 PM79 °FPartly sunny.No wind45%30.06 "Hg10 mi
4:53 PM79 °FPartly sunny.5 mph48%30.06 "Hg10 mi
3:52 PM77 °FBroken clouds.No wind47%29.80 "Hg10 mi
2:49 PM75 °FBroken clouds.6 mph54%30.12 "Hg10 mi
1:53 PM75 °FBroken clouds.No wind57%30.14 "Hg10 mi
Weather by CustomWeather, © 2014

See weather overviewHow to use our weather pages